| time (UTC) | temp F | wind direction | speed MPH | gust MPH | rain 1hr in | rain 24hr in | rain mn in | humidity % | barometer mb |
| 20260505041215 | 64 | 194 | 0.0 | 1.0 | 0.00 | 0.00 | 0.00 | 82 | 1016.5 |
| 20260505040716 | 64 | 185 | 0.0 | 1.0 | 0.00 | 0.00 | 0.00 | 82 | 1016.6 |
| 20260505040248 | 64 | 200 | 0.0 | 1.0 | 0.00 | 0.00 | 0.00 | 82 | 1016.5 |
| 20260505035711 | 64 | 198 | 0.0 | 1.0 | 0.00 | 0.00 | 0.00 | 82 | 1016.5 |
| 20260505035235 | 64 | 191 | 0.0 | 2.0 | 0.00 | 0.00 | 0.00 | 81 | 1016.5 |
| 20260505034719 | 64 | 166 | 0.0 | 2.0 | 0.00 | 0.00 | 0.00 | 81 | 1016.5 |
| 20260505034224 | 64 | 140 | 0.0 | 1.0 | 0.00 | 0.00 | 0.00 | 80 | 1016.5 |
| 20260505033712 | 65 | 210 | 0.0 | 1.0 | 0.00 | 0.00 | 0.00 | 80 | 1016.5 |
| 20260505033216 | 65 | 183 | 0.0 | 1.0 | 0.00 | 0.00 | 0.00 | 80 | 1016.7 |
| 20260505032719 | 65 | 156 | 0.0 | 1.0 | 0.00 | 0.00 | 0.00 | 79 | 1016.7 |
| 20260505032223 | 65 | 210 | 0.0 | 1.0 | 0.00 | 0.00 | 0.00 | 79 | 1016.8 |
| 20260505031728 | 65 | 188 | 0.0 | 1.0 | 0.00 | 0.00 | 0.00 | 78 | 1016.7 |
| 20260505031231 | 66 | 203 | 0.0 | 1.0 | 0.00 | 0.00 | 0.00 | 78 | 1016.8 |
| 20260505030733 | 66 | 194 | 0.0 | 3.0 | 0.00 | 0.00 | 0.00 | 77 | 1016.8 |
| 20260505030216 | 66 | 142 | 0.0 | 3.0 | 0.00 | 0.00 | 0.00 | 77 | 1016.8 |
| 20260505025719 | 66 | 143 | 0.0 | 3.0 | 0.00 | 0.00 | 0.00 | 77 | 1016.8 |
| 20260505025222 | 67 | 201 | 0.0 | 2.0 | 0.00 | 0.00 | 0.00 | 77 | 1016.8 |
| 20260505024745 | 67 | 125 | 0.0 | 4.0 | 0.00 | 0.00 | 0.00 | 77 | 1016.9 |
| 20260505024228 | 67 | 151 | 2.0 | 4.0 | 0.00 | 0.00 | 0.00 | 77 | 1016.8 |
| 20260505023712 | 67 | 131 | 1.0 | 3.0 | 0.00 | 0.00 | 0.00 | 77 | 1016.8 |
| 20260505023220 | 67 | 95 | 0.0 | 4.0 | 0.00 | 0.00 | 0.00 | 76 | 1016.9 |
| 20260505022743 | 67 | 155 | 1.0 | 4.0 | 0.00 | 0.00 | 0.00 | 76 | 1016.9 |
| 20260505022226 | 67 | 70 | 1.0 | 4.0 | 0.00 | 0.00 | 0.00 | 76 | 1016.9 |
| 20260505021711 | 67 | 199 | 1.0 | 6.0 | 0.00 | 0.00 | 0.00 | 76 | 1016.8 |
| 20260505021214 | 68 | 127 | 1.0 | 6.0 | 0.00 | 0.00 | 0.00 | 75 | 1016.8 |
| 20260505020727 | 68 | 124 | 1.0 | 3.0 | 0.00 | 0.00 | 0.00 | 75 | 1016.8 |
| 20260505020211 | 68 | 92 | 1.0 | 4.0 | 0.00 | 0.00 | 0.00 | 74 | 1016.8 |
| 20260505015713 | 68 | 146 | 1.0 | 4.0 | 0.00 | 0.00 | 0.00 | 74 | 1016.8 |
| 20260505015217 | 68 | 118 | 1.0 | 4.0 | 0.00 | 0.00 | 0.00 | 74 | 1016.8 |
| 20260505014721 | 69 | 79 | 1.0 | 5.0 | 0.00 | 0.00 | 0.00 | 74 | 1016.8 |
| 20260505014225 | 69 | 77 | 3.0 | 6.0 | 0.00 | 0.00 | 0.00 | 74 | 1016.7 |
| 20260505013710 | 69 | 166 | 2.0 | 6.0 | 0.00 | 0.00 | 0.00 | 74 | 1016.6 |
| 20260505013219 | 69 | 94 | 4.0 | 5.0 | 0.00 | 0.00 | 0.00 | 74 | 1016.6 |
| 20260505012723 | 69 | 112 | 2.0 | 6.0 | 0.00 | 0.00 | 0.00 | 74 | 1016.6 |
| 20260505012226 | 70 | 127 | 3.0 | 7.0 | 0.00 | 0.00 | 0.00 | 74 | 1016.6 |
| 20260505011710 | 70 | 89 | 5.0 | 7.0 | 0.00 | 0.00 | 0.00 | 73 | 1016.4 |
| 20260505011216 | 70 | 137 | 2.0 | 8.0 | 0.00 | 0.00 | 0.00 | 73 | 1016.4 |
| 20260505010719 | 70 | 108 | 3.0 | 8.0 | 0.00 | 0.00 | 0.00 | 73 | 1016.4 |
| 20260505010221 | 70 | 97 | 5.0 | 8.0 | 0.00 | 0.00 | 0.00 | 72 | 1016.3 |
| 20260505005725 | 70 | 123 | 2.0 | 8.0 | 0.00 | 0.00 | 0.00 | 73 | 1016.3 |
| 20260505005210 | 70 | 105 | 4.0 | 6.0 | 0.00 | 0.00 | 0.00 | 72 | 1016.3 |
| 20260505004714 | 71 | 144 | 2.0 | 8.0 | 0.00 | 0.00 | 0.00 | 72 | 1016.3 |
| 20260505004219 | 71 | 66 | 3.0 | 9.0 | 0.00 | 0.00 | 0.00 | 72 | 1016.2 |
| 20260505003727 | 71 | 100 | 6.0 | 9.0 | 0.00 | 0.00 | 0.00 | 71 | 1016.2 |
| 20260505003213 | 71 | 82 | 6.0 | 9.0 | 0.00 | 0.00 | 0.00 | 73 | 1016.2 |
| 20260505002715 | 71 | 98 | 4.0 | 5.0 | 0.00 | 0.00 | 0.00 | 72 | 1016.2 |
| 20260505002220 | 71 | 156 | 2.0 | 6.0 | 0.00 | 0.00 | 0.00 | 69 | 1016.2 |
| 20260505001725 | 71 | 83 | 2.0 | 6.0 | 0.00 | 0.00 | 0.00 | 68 | 1016.1 |
| 20260505001228 | 71 | 130 | 3.0 | 8.0 | 0.00 | 0.00 | 0.00 | 67 | 1016.0 |
| 20260505000723 | 72 | 92 | 2.0 | 8.0 | 0.00 | 0.00 | 0.00 | 66 | 1015.9 |
| 20260505000228 | 72 | 92 | 3.0 | 7.0 | 0.00 | 0.00 | 0.00 | 66 | 1015.8 |
| 20260504235731 | 72 | 84 | 3.0 | 9.0 | 0.00 | 0.00 | 0.00 | 65 | 1015.7 |
| 20260504235214 | 73 | 82 | 4.0 | 9.0 | 0.00 | 0.00 | 0.00 | 66 | 1015.6 |
| 20260504234710 | 73 | 121 | 5.0 | 9.0 | 0.00 | 0.00 | 0.00 | 66 | 1015.7 |
| 20260504234215 | 73 | 80 | 5.0 | 14.0 | 0.00 | 0.00 | 0.00 | 64 | 1015.6 |
| 20260504233719 | 73 | 129 | 8.0 | 16.0 | 0.00 | 0.00 | 0.00 | 65 | 1015.5 |
| 20260504233227 | 74 | 92 | 9.0 | 16.0 | 0.00 | 0.00 | 0.00 | 66 | 1015.4 |
| 20260504232710 | 74 | 101 | 6.0 | 16.0 | 0.00 | 0.00 | 0.00 | 65 | 1015.3 |
| 20260504232214 | 74 | 122 | 6.0 | 16.0 | 0.00 | 0.00 | 0.00 | 65 | 1015.3 |
| 20260504231718 | 74 | 83 | 11.0 | 14.0 | 0.00 | 0.00 | 0.00 | 65 | 1015.2 |
| 20260504231218 | 74 | 96 | 10.0 | 17.0 | 0.00 | 0.00 | 0.00 | 61 | 1015.3 |
| 20260504230720 | 74 | 82 | 11.0 | 17.0 | 0.00 | 0.00 | 0.00 | 63 | 1015.3 |
| 20260504230224 | 74 | 72 | 11.0 | 18.0 | 0.00 | 0.00 | 0.00 | 66 | 1015.3 |
| 20260504225728 | 74 | 105 | 12.0 | 18.0 | 0.00 | 0.00 | 0.00 | 63 | 1015.2 |
| 20260504225212 | 74 | 110 | 13.0 | 18.0 | 0.00 | 0.00 | 0.00 | 63 | 1015.3 |
| 20260504224715 | 75 | 80 | 11.0 | 16.0 | 0.00 | 0.00 | 0.00 | 65 | 1015.3 |
| 20260504224229 | 75 | 82 | 9.0 | 17.0 | 0.00 | 0.00 | 0.00 | 62 | 1015.3 |
| 20260504223716 | 75 | 86 | 13.0 | 17.0 | 0.00 | 0.00 | 0.00 | 62 | 1015.3 |
| 20260504223221 | 75 | 89 | 12.0 | 17.0 | 0.00 | 0.00 | 0.00 | 64 | 1015.4 |
| 20260504222723 | 75 | 112 | 10.0 | 18.0 | 0.00 | 0.00 | 0.00 | 64 | 1015.5 |
| 20260504222228 | 75 | 82 | 15.0 | 18.0 | 0.00 | 0.00 | 0.00 | 64 | 1015.5 |
| 20260504221711 | 75 | 78 | 10.0 | 16.0 | 0.00 | 0.00 | 0.00 | 60 | 1015.4 |
| 20260504221215 | 75 | 94 | 11.0 | 16.0 | 0.00 | 0.00 | 0.00 | 62 | 1015.5 |
| 20260504220713 | 75 | 89 | 12.0 | 16.0 | 0.00 | 0.00 | 0.00 | 64 | 1015.5 |
| 20260504220216 | 75 | 87 | 11.0 | 19.0 | 0.00 | 0.00 | 0.00 | 63 | 1015.4 |
| 20260504215721 | 75 | 74 | 16.0 | 21.0 | 0.00 | 0.00 | 0.00 | 65 | 1015.4 |
| 20260504215221 | 75 | 85 | 15.0 | 21.0 | 0.00 | 0.00 | 0.00 | 64 | 1015.4 |
| 20260504214726 | 75 | 80 | 14.0 | 19.0 | 0.00 | 0.00 | 0.00 | 65 | 1015.4 |
| 20260504214228 | 75 | 82 | 15.0 | 19.0 | 0.00 | 0.00 | 0.00 | 66 | 1015.4 |
| 20260504213723 | 75 | 85 | 16.0 | 19.0 | 0.00 | 0.00 | 0.00 | 66 | 1015.4 |
| 20260504213232 | 75 | 89 | 7.0 | 17.0 | 0.00 | 0.00 | 0.00 | 60 | 1015.4 |
| 20260504212733 | 75 | 79 | 12.0 | 17.0 | 0.00 | 0.00 | 0.00 | 64 | 1015.4 |
| 20260504212227 | 75 | 80 | 12.0 | 16.0 | 0.00 | 0.00 | 0.00 | 60 | 1015.3 |
| 20260504211710 | 75 | 54 | 11.0 | 16.0 | 0.00 | 0.00 | 0.00 | 64 | 1015.4 |
| 20260504211234 | 75 | 63 | 12.0 | 15.0 | 0.00 | 0.00 | 0.00 | 62 | 1015.4 |
| 20260504210717 | 75 | 71 | 12.0 | 16.0 | 0.00 | 0.00 | 0.00 | 64 | 1015.4 |
| 20260504210216 | 75 | 82 | 13.0 | 16.0 | 0.00 | 0.00 | 0.00 | 62 | 1015.4 |
| 20260504205720 | 75 | 103 | 11.0 | 15.0 | 0.00 | 0.00 | 0.00 | 64 | 1015.4 |
| 20260504205243 | 75 | 115 | 11.0 | 16.0 | 0.00 | 0.00 | 0.00 | 62 | 1015.4 |
| 20260504204725 | 75 | 94 | 11.0 | 16.0 | 0.00 | 0.00 | 0.00 | 63 | 1015.4 |
| 20260504204225 | 75 | 87 | 13.0 | 15.0 | 0.00 | 0.00 | 0.00 | 63 | 1015.5 |
| 20260504203748 | 75 | 70 | 11.0 | 15.0 | 0.00 | 0.00 | 0.00 | 60 | 1015.6 |
| 20260504203224 | 75 | 63 | 11.0 | 16.0 | 0.00 | 0.00 | 0.00 | 61 | 1015.6 |
| 20260504202728 | 75 | 67 | 12.0 | 18.0 | 0.00 | 0.00 | 0.00 | 63 | 1015.6 |
| 20260504202210 | 75 | 81 | 12.0 | 18.0 | 0.00 | 0.00 | 0.00 | 63 | 1015.6 |
| 20260504201714 | 76 | 81 | 11.0 | 15.0 | 0.00 | 0.00 | 0.00 | 64 | 1015.6 |
| 20260504201218 | 76 | 55 | 6.0 | 13.0 | 0.00 | 0.00 | 0.00 | 60 | 1015.8 |
| 20260504200720 | 75 | 77 | 7.0 | 13.0 | 0.00 | 0.00 | 0.00 | 59 | 1015.7 |
| 20260504200243 | 75 | 87 | 9.0 | 13.0 | 0.00 | 0.00 | 0.00 | 61 | 1015.7 |
| 20260504195728 | 75 | 62 | 9.0 | 16.0 | 0.00 | 0.00 | 0.00 | 63 | 1015.8 |
| 20260504195212 | 75 | 82 | 11.0 | 17.0 | 0.00 | 0.00 | 0.00 | 64 | 1015.9 |
| 20260504194716 | 75 | 73 | 11.0 | 18.0 | 0.00 | 0.00 | 0.00 | 61 | 1015.9 |
| 20260504194219 | 75 | 78 | 14.0 | 18.0 | 0.00 | 0.00 | 0.00 | 61 | 1015.9 |
| 20260504193743 | 75 | 63 | 10.0 | 13.0 | 0.00 | 0.00 | 0.00 | 60 | 1015.9 |
| 20260504193243 | 75 | 70 | 8.0 | 15.0 | 0.00 | 0.00 | 0.00 | 58 | 1016.0 |
| 20260504192724 | 75 | 99 | 7.0 | 15.0 | 0.00 | 0.00 | 0.00 | 59 | 1016.0 |
| 20260504192229 | 75 | 71 | 7.0 | 14.0 | 0.00 | 0.00 | 0.00 | 62 | 1016.1 |
| 20260504191734 | 75 | 87 | 10.0 | 15.0 | 0.00 | 0.00 | 0.00 | 65 | 1016.2 |
| 20260504191218 | 75 | 104 | 10.0 | 15.0 | 0.00 | 0.00 | 0.00 | 62 | 1016.3 |
| 20260504190721 | 75 | 85 | 7.0 | 15.0 | 0.00 | 0.00 | 0.00 | 61 | 1016.4 |
| 20260504190226 | 75 | 69 | 8.0 | 13.0 | 0.00 | 0.00 | 0.00 | 62 | 1016.5 |
| 20260504185710 | 75 | 72 | 10.0 | 13.0 | 0.00 | 0.00 | 0.00 | 65 | 1016.6 |
| 20260504185218 | 75 | 61 | 7.0 | 16.0 | 0.00 | 0.00 | 0.00 | 62 | 1016.6 |
| 20260504184720 | 75 | 79 | 11.0 | 16.0 | 0.00 | 0.00 | 0.00 | 64 | 1016.7 |
| 20260504184224 | 75 | 57 | 12.0 | 16.0 | 0.00 | 0.00 | 0.00 | 61 | 1016.7 |
| 20260504183746 | 75 | 64 | 10.0 | 15.0 | 0.00 | 0.00 | 0.00 | 67 | 1016.8 |
| 20260504183249 | 75 | 70 | 12.0 | 15.0 | 0.00 | 0.00 | 0.00 | 64 | 1016.9 |
| 20260504182711 | 75 | 65 | 11.0 | 14.0 | 0.00 | 0.00 | 0.00 | 63 | 1016.9 |
| 20260504182215 | 75 | 60 | 11.0 | 17.0 | 0.00 | 0.00 | 0.00 | 63 | 1017.0 |
| 20260504181720 | 75 | 70 | 13.0 | 17.0 | 0.00 | 0.00 | 0.00 | 65 | 1017.0 |
| 20260504181245 | 75 | 69 | 11.0 | 15.0 | 0.00 | 0.00 | 0.00 | 64 | 1017.0 |
| 20260504180716 | 75 | 68 | 8.0 | 14.0 | 0.00 | 0.00 | 0.00 | 62 | 1017.1 |
| 20260504180241 | 75 | 68 | 11.0 | 15.0 | 0.00 | 0.00 | 0.00 | 64 | 1017.1 |
| 20260504175745 | 75 | 76 | 13.0 | 15.0 | 0.00 | 0.00 | 0.00 | 64 | 1017.1 |
| 20260504175229 | 74 | 73 | 8.0 | 14.0 | 0.00 | 0.00 | 0.00 | 61 | 1017.1 |
| 20260504174713 | 74 | 75 | 7.0 | 14.0 | 0.00 | 0.00 | 0.00 | 62 | 1017.2 |
| 20260504174249 | 74 | 70 | 11.0 | 13.0 | 0.00 | 0.00 | 0.00 | 62 | 1017.2 |
| 20260504173710 | 74 | 56 | 8.0 | 14.0 | 0.00 | 0.00 | 0.00 | 62 | 1017.2 |
| 20260504173213 | 74 | 73 | 10.0 | 15.0 | 0.00 | 0.00 | 0.00 | 62 | 1017.4 |
| 20260504172711 | 74 | 71 | 12.0 | 15.0 | 0.00 | 0.00 | 0.00 | 63 | 1017.4 |
| 20260504172215 | 74 | 80 | 10.0 | 15.0 | 0.00 | 0.00 | 0.00 | 61 | 1017.4 |
| 20260504171718 | 74 | 72 | 9.0 | 14.0 | 0.00 | 0.00 | 0.00 | 62 | 1017.3 |
| 20260504171222 | 74 | 54 | 9.0 | 14.0 | 0.00 | 0.00 | 0.00 | 60 | 1017.4 |
| 20260504170744 | 74 | 57 | 9.0 | 13.0 | 0.00 | 0.00 | 0.00 | 65 | 1017.5 |
| 20260504170226 | 74 | 59 | 9.0 | 13.0 | 0.00 | 0.00 | 0.00 | 62 | 1017.5 |
| 20260504150734 | 73 | 54 | 6.0 | 9.0 | 0.00 | 0.00 | 0.00 | 59 | 1018.3 |
| 20260504150214 | 73 | 62 | 7.0 | 13.0 | 0.00 | 0.00 | 0.00 | 62 | 1018.3 |
| 20260504141228 | 72 | 42 | 6.0 | 8.0 | 0.00 | 0.00 | 0.00 | 62 | 1018.1 |
| 20260504140715 | 72 | 43 | 6.0 | 11.0 | 0.00 | 0.00 | 0.00 | 61 | 1018.1 |
| 20260504140214 | 72 | 66 | 6.0 | 11.0 | 0.00 | 0.00 | 0.00 | 61 | 1018.0 |
| 20260504130738 | 70 | 60 | 7.0 | 11.0 | 0.00 | 0.00 | 0.00 | 76 | 1018.0 |
| 20260504130221 | 70 | 44 | 8.0 | 12.0 | 0.00 | 0.00 | 0.00 | 77 | 1018.0 |
| 20260504120217 | 67 | 44 | 8.0 | 12.0 | 0.00 | 0.00 | 0.00 | 84 | 1017.5 |
| 20260504110230 | 65 | 44 | 9.0 | 11.0 | 0.00 | 0.00 | 0.00 | 84 | 1016.9 |
| 20260504100215 | 66 | 37 | 9.0 | 12.0 | 0.00 | 0.00 | 0.00 | 83 | 1016.6 |